COSMOS 2251 DEB, 36558

Orbit data source: Space-Track

COSMOS 2251 DEB, 36558 is space debris in LEO originally from a launch on Wed, 16 Jun 1993 UTC launched from the Plesetsk Missile And Space Complex (PKMTR). The debris from Iridium 33, an American commercial communications satellite, has been tracked extensively since its accidental collision with the defunct Russian satellite Cosmos 2251 in 2009. This event, occurring at high speed in low Earth orbit (LEO), generated thousands of pieces of space debris, significantly increasing the risk of further collisions. The Iridium 33 debris cloud has impacted space traffic management and orbital debris mitigation strategies, making it a subject of ongoing study in space situational awareness.

Loading next visibility...
Identifier
36558, 1993-036BDU
Orbit
LEO
Country
Flag of CISCIS
Related business
Manufacturer
Unknown
Mission
Spacecraft
Bus & Motor
Unknown
Mass
Unknown
Launch date (UTC)
1993-06-16 (32 years ago)
Launch vehicle
Unknown
Launch site
Plesetsk Missile And Space Complex (PKMTR)
Object type
Payload
Rocket body
Debris
Shape & HBR
Unknown shape, 0.1 m
Radar Cross Section
Small (<0.1 m²)

Expand to show TLE details & history
Last TLE update: 2 days ago

TLE from 2 days ago
0 COSMOS 2251 DEB
1 36558U 93036BDU 25300.58119548  .00004936  00000-0  11533-2 0  9996
2 36558  74.0434 241.8944 0013499 331.1094  28.9320 14.54885787845974
Epoch: 2025-10-27T13:56Z
TLE epoch observation values (Epoch: 2025-10-27T13:56:55.289Z)
Latitude
-0.00003°
Longitude
-3.51696°
Altitude
703.998 km
Speed
7.509 km/s
True Right ascension
16h 07m 34s
True Declination
0° 00' 00"
Sunlit
Object was in daylight at epoch
Visualization orbit readout
Latitude
Unknown
Longitude
Unknown
Altitude
Unknown
Speed
Unknown
Apparent Right ascension
Unknown
Apparent Declination
Unknown
Sunlit
N/A
Visualization observer readout
Local Sidereal Time
12:54:46
Azimuth
Unknown
Elevation
Unknown
Doppler factor
Unknown
Orbital elements
Apogee altitude
716.903 km
Perigee altitude
697.774 km
Semi-major axis
7,085.475 km
Eccentricity
0.00135
Inclination
74.0434°
RAAN
241.8944°
Arg. of periapsis
331.1094°
True anomaly
29.00694°
Mean anomaly
28.932°
Eccentric anomaly
28.96946°
Mean motion
3.63906 °/min
Orbital period
98.93 mins
BSTAR
0.0011533

Documentation

Showing up to 5 results
|